W0WC Weather Reports


time (UTC)temp
C
wind
direction
speed
KPH
gust
KPH
rain 1hr
cm
rain 24hr
cm
rain mn
cm
humidity
%
barometer
mb
20260505214218 10 16 12.9 16.1 0.00 0.99 0.99 74 1009.8
20260505213715 10 59 4.8 9.7 0.00 0.99 0.99 74 1010.3
20260505213212 10 23 12.9 16.1 0.00 0.99 0.99 74 1010.0
20260505212708 10 357 12.9 22.5 0.00 0.99 0.99 75 1010.1
20260505212206 10 46 9.7 12.9 0.00 0.99 0.99 76 1010.1
20260505211702 10 31 9.7 12.9 0.00 0.99 0.99 76 1010.2
20260505211200 10 1 11.3 17.7 0.00 0.99 0.99 76 1010.2
20260505210656 10 24 8.0 9.7 0.00 0.99 0.99 76 1010.5
20260505210153 10 0 16.1 22.5 0.00 0.99 0.99 75 1010.3
20260505205650 10 10 20.9 25.7 0.00 0.99 0.99 75 1010.3
20260505205148 10 50 8.0 11.3 0.00 0.99 0.99 74 1010.3
20260505204645 10 32 16.1 20.9 0.00 0.99 0.99 73 1010.2
20260505204143 10 25 19.3 24.1 0.00 0.99 0.99 73 1010.1
20260505203640 10 32 12.9 16.1 0.00 0.99 0.99 72 1010.2
20260505203136 10 14 6.4 9.7 0.00 0.99 0.99 71 1010.1
20260505202632 10 11 3.2 9.7 0.00 0.99 0.99 69 1010.2
20260505202128 10 17 16.1 20.9 0.00 0.99 0.99 71 1010.2
20260505201625 10 43 9.7 12.9 0.00 0.99 0.99 71 1010.1
20260505201123 10 38 19.3 25.7 0.00 0.99 0.99 69 1010.0
20260505200621 10 88 16.1 22.5 0.00 0.99 0.99 72 1010.0
20260505200118 10 16 14.5 16.1 0.00 0.99 0.99 73 1010.2
20260505195614 11 26 9.7 12.9 0.00 0.99 0.99 73 1010.0
20260505195111 11 338 11.3 16.1 0.00 0.99 0.99 70 1010.0
20260505194608 11 26 11.3 14.5 0.00 0.99 0.99 70 1010.0
20260505194103 11 21 9.7 14.5 0.00 0.99 0.99 70 1010.0
20260505193601 11 306 16.1 22.5 0.00 0.99 0.99 69 1010.0
20260505193058 11 14 9.7 11.3 0.00 0.99 0.99 69 1010.0
20260505192557 11 28 12.9 14.5 0.00 0.99 0.99 69 1010.0
20260505192054 11 2 19.3 24.1 0.00 0.99 0.99 69 1009.5
20260505191552 11 17 16.1 22.5 0.00 0.99 0.99 69 1009.8
20260505191049 11 57 8.0 14.5 0.00 0.99 0.99 71 1009.6
20260505190544 11 40 19.3 27.4 0.00 0.99 0.99 70 1009.7
20260505190040 11 332 11.3 17.7 0.00 0.99 0.99 72 1009.7
20260505185537 11 351 9.7 12.9 0.00 0.99 0.99 74 1009.6
20260505185033 10 10 12.9 20.9 0.00 0.99 0.99 74 1009.7
20260505184530 11 46 4.8 6.4 0.00 0.99 0.99 76 1009.8
20260505184027 10 27 14.5 24.1 0.00 0.99 0.99 76 1009.5
20260505183524 11 1 24.1 38.6 0.00 0.99 0.99 76 1009.8
20260505183021 11 348 19.3 27.4 0.00 0.99 0.99 76 1009.8
20260505182517 11 31 17.7 22.5 0.00 0.99 0.99 76 1009.7
20260505182014 11 14 11.3 14.5 0.00 0.99 0.99 77 1009.8
20260505181511 11 4 11.3 16.1 0.00 0.99 0.99 78 1009.6
20260505181008 11 16 8.0 9.7 0.00 0.99 0.99 79 1009.6
20260505180504 11 0 11.3 14.5 0.00 0.99 0.99 80 1009.4
20260505180001 11 13 6.4 9.7 0.00 0.99 0.99 80 1009.5
20260505175457 11 23 8.0 14.5 0.00 0.99 0.99 79 1009.5
20260505174954 11 34 11.3 14.5 0.00 0.99 0.99 79 1009.5
20260505174451 11 356 9.7 12.9 0.00 0.99 0.99 79 1009.3
20260505173947 11 69 17.7 20.9 0.00 0.99 0.99 78 1009.2
20260505173443 11 23 11.3 17.7 0.00 0.99 0.99 79 1009.4
20260505172940 11 76 6.4 11.3 0.00 0.99 0.99 79 1009.0
20260505172439 11 90 9.7 17.7 0.00 0.99 0.99 80 1008.9
20260505171938 11 14 8.0 14.5 0.00 0.99 0.99 80 1008.9
20260505171435 11 29 4.8 4.8 0.00 0.99 0.99 80 1008.7
20260505170932 11 32 12.9 22.5 0.00 0.99 0.99 80 1008.9
20260505170428 11 16 6.4 11.3 0.00 0.99 0.99 80 1008.9
20260505165924 11 25 11.3 16.1 0.00 0.99 0.99 80 1009.0
20260505165420 11 19 11.3 20.9 0.00 0.99 0.99 80 1008.8
20260505164915 11 354 4.8 6.4 0.00 0.99 0.99 80 1009.0
20260505164413 11 350 12.9 16.1 0.00 0.99 0.99 80 1009.0
20260505163910 11 42 6.4 9.7 0.00 0.99 0.99 80 1009.3
20260505163409 11 34 8.0 9.7 0.00 0.99 0.99 80 1009.3
20260505162908 12 1 9.7 16.1 0.00 0.99 0.99 81 1009.1
20260505162403 12 28 14.5 17.7 0.00 0.99 0.99 80 1008.9
20260505161900 12 302 8.0 14.5 0.00 0.99 0.99 81 1009.0
20260505161357 12 16 9.7 12.9 0.00 0.99 0.99 80 1009.0
20260505160854 12 341 8.0 12.9 0.00 0.99 0.99 80 1008.8
20260505160353 12 25 8.0 11.3 0.00 0.99 0.99 81 1008.8
20260505153331 11 28 12.9 24.1 0.00 0.99 0.99 85 1008.7
20260505152828 11 359 9.7 12.9 0.00 0.99 0.99 86 1009.0
20260505152325 11 33 9.7 17.7 0.00 0.99 0.99 87 1008.7
20260505151820 11 6 9.7 12.9 0.00 0.99 0.99 87 1009.0
20260505151317 11 42 11.3 16.1 0.00 0.99 0.99 88 1009.2
20260505150814 11 29 16.1 20.9 0.00 0.99 0.99 88 1009.2
20260505150311 11 8 17.7 20.9 0.00 0.99 0.99 88 1009.0
20260505140241 12 52 8.0 11.3 0.00 0.99 0.99 90 1006.9
20260505130204 12 348 14.5 20.9 0.00 0.99 0.99 89 1008.0
20260505124654 13 350 8.0 12.9 0.00 0.99 0.99 89 1007.2
20260505124151 13 44 9.7 12.9 0.00 0.99 0.99 89 1007.3
20260505123647 13 17 4.8 6.4 0.00 0.99 0.99 89 1006.9
20260505123144 13 27 8.0 11.3 0.00 0.99 0.99 89 1007.1
20260505122640 13 39 6.4 6.4 0.00 0.99 0.99 89 1007.1
20260505122138 13 351 6.4 11.3 0.00 0.99 0.99 89 1007.1
20260505121634 13 28 6.4 11.3 0.00 0.99 0.99 89 1006.9
20260505121131 13 47 3.2 4.8 0.00 0.99 0.99 88 1006.6
20260505120627 13 4 4.8 4.8 0.00 0.99 0.99 89 1006.5
20260505120123 13 59 3.2 3.2 0.00 0.99 0.99 89 1006.3
20260505115618 14 3 4.8 6.4 0.00 0.99 0.99 89 1006.1
20260505115115 14 359 6.4 9.7 0.00 0.99 0.99 89 1006.2
20260505114612 14 24 1.6 3.2 0.00 0.99 0.99 89 1006.3
20260505114109 14 18 12.9 16.1 0.00 0.99 0.99 89 1006.2
20260505113605 15 13 4.8 9.7 0.00 0.99 0.99 90 1006.5
20260505113102 15 17 1.6 3.2 0.00 0.99 0.99 91 1006.1
20260505112558 15 48 4.8 6.4 0.00 0.99 0.99 91 1006.0
20260505112057 15 2 1.6 1.6 0.00 0.99 0.99 91 1005.7
20260505111556 15 21 6.4 9.7 0.00 0.99 0.99 91 1005.5
20260505111052 15 12 3.2 4.8 0.00 0.99 0.99 92 1005.7
20260505110549 15 82 6.4 6.4 0.00 0.99 0.99 93 1005.8
20260505102021 16 21 1.6 1.6 0.00 0.99 0.99 93 1005.6
20260505101520 16 5 6.4 9.7 0.00 0.99 0.99 93 1005.9
20260505101015 16 23 1.6 1.6 0.00 0.99 0.99 93 1006.0
20260505100513 16 21 1.6 3.2 0.00 0.99 0.99 93 1006.1
20260505100010 16 28 0.0 1.6 0.00 0.99 0.99 93 1006.1
20260505095506 16 14 3.2 3.2 0.00 0.99 0.99 93 1006.6
20260505095001 16 16 3.2 3.2 0.18 0.99 0.99 92 1006.4
20260505094459 16 111 3.2 4.8 0.18 0.99 0.99 92 1005.9
20260505093955 16 338 9.7 12.9 0.00 0.97 0.97 91 1006.0
20260505093451 16 25 0.0 0.0 0.00 0.97 0.97 91 1005.2
20260505092949 16 44 1.6 3.2 0.00 0.97 0.97 91 1005.2
20260505092446 16 68 3.2 3.2 0.00 0.97 0.97 91 1005.3
20260505091944 16 108 6.4 9.7 0.00 0.97 0.97 91 1005.0
20260505091441 16 193 8.0 11.3 0.00 0.97 0.97 92 1004.6
20260505090939 16 136 3.2 4.8 0.00 0.97 0.97 92 1004.5
20260505090437 16 218 6.4 11.3 0.00 0.97 0.97 91 1004.6
20260505085934 16 168 6.4 6.4 0.13 0.97 0.97 92 1005.0
20260505085431 16 119 3.2 4.8 0.30 0.97 0.97 92 1005.1
20260505084930 16 176 3.2 4.8 0.18 0.94 0.94 92 1005.3
20260505084428 16 210 3.2 4.8 0.18 0.94 0.94 92 1005.4
20260505083926 16 212 11.3 14.5 0.00 0.91 0.91 92 1005.3
20260505083423 16 173 6.4 6.4 0.00 0.91 0.91 92 1005.2
20260505082919 16 192 8.0 11.3 0.00 0.91 0.91 92 1004.8
20260505082415 16 157 6.4 9.7 0.00 0.91 0.91 92 1004.4
20260505081912 16 90 8.0 14.5 0.00 0.91 0.91 92 1004.5
20260505081408 16 118 8.0 11.3 0.00 0.91 0.91 93 1004.4
20260505080905 16 60 4.8 4.8 0.00 0.91 0.91 94 1004.4
20260505080401 16 211 9.7 16.1 0.00 0.91 0.91 94 1004.3
20260505075857 16 176 11.3 14.5 0.00 0.91 0.91 94 1003.6
20260505075354 16 106 9.7 12.9 0.13 0.91 0.91 94 1003.6
20260505074851 16 189 9.7 9.7 0.13 0.91 0.91 95 1004.1
20260505074348 16 154 16.1 24.1 0.13 0.91 0.91 95 1004.0
20260505073845 16 127 11.3 16.1 0.00 0.89 0.89 95 1004.7
20260505073343 16 142 9.7 16.1 0.00 0.89 0.89 95 1004.8
20260505072840 16 194 8.0 11.3 0.00 0.89 0.89 95 1005.1
20260505072336 16 171 8.0 14.5 0.00 0.89 0.89 95 1005.4
20260505071832 16 79 8.0 11.3 0.18 0.89 0.89 95 1006.3
20260505071329 16 73 3.2 4.8 0.30 0.89 0.89 94 1006.8
20260505070827 16 107 3.2 4.8 0.43 0.86 0.86 94 1006.6
20260505070323 16 247 4.8 6.4 0.97 0.84 0.84 94 1007.3
20260505065818 16 128 6.4 11.3 0.97 0.79 0.79 93 1007.1
20260505065316 16 209 4.8 6.4 0.79 0.71 0.71 93 1008.0
20260505064813 16 183 3.2 3.2 0.71 0.64 0.64 93 1007.9
20260505064310 16 13 0.0 1.6 0.71 0.58 0.58 92 1007.8
20260505063808 16 304 4.8 6.4 0.89 0.53 0.53 91 1007.9
20260505063304 16 225 6.4 9.7 0.97 0.46 0.46 91 1007.9
20260505062800 17 275 8.0 11.3 0.89 0.38 0.38 90 1008.0
20260505062258 17 196 11.3 14.5 0.61 0.30 0.30 88 1008.3
20260505061754 17 259 6.4 9.7 0.48 0.23 0.23 87 1007.7
20260505061252 17 266 6.4 6.4 0.79 0.20 0.20 85 1007.0
20260505060750 17 171 8.0 9.7 0.79 0.15 0.15 82 1006.8
20260505060247 18 293 4.8 4.8 0.43 0.08 0.08 79 1006.6
20260505055742 19 125 12.9 14.5 0.13 0.03 0.03 76 1006.2
20260505055238 19 200 14.5 16.1 0.13 0.03 0.03 72 1006.0
20260505054736 20 129 9.7 14.5 0.00 0.00 0.00 69 1005.4
20260505054234 20 192 8.0 9.7 0.00 0.00 0.00 68 1005.4
20260505053732 20 171 9.7 12.9 0.00 0.00 0.00 66 1005.5
20260505053228 20 167 4.8 6.4 0.00 0.00 0.00 65 1005.5
20260505052725 20 148 4.8 6.4 0.00 0.00 0.00 64 1005.2
20260505052222 20 89 3.2 3.2 0.00 0.00 0.00 64 1005.2
20260505051719 20 176 4.8 6.4 0.00 0.00 0.00 64 1005.4
20260505051217 20 170 3.2 3.2 0.00 0.00 0.00 64 1005.4
20260505050715 20 84 6.4 11.3 0.00 0.00 0.00 65 1005.5
20260505050213 20 143 9.7 12.9 0.00 0.00 0.00 65 1005.5
20260505041648 20 172 8.0 9.7 0.00 0.00 0.00 65 1005.5
20260505041146 20 176 6.4 9.7 0.00 0.00 0.00 65 1005.3
20260505040643 20 138 4.8 6.4 0.00 0.00 0.00 65 1005.5
20260505040140 20 108 3.2 3.2 0.00 0.00 0.00 65 1005.3
20260505035636 20 108 6.4 6.4 0.00 0.00 0.00 64 1005.5
20260505035132 20 152 3.2 3.2 0.00 0.00 0.00 64 1005.9
20260505034629 20 84 3.2 3.2 0.00 0.00 0.00 64 1006.2
20260505034126 21 228 9.7 12.9 0.00 0.00 0.00 64 1006.2
20260505033622 21 117 6.4 6.4 0.00 0.00 0.00 63 1006.1
20260505033121 21 189 11.3 14.5 0.00 0.00 0.00 63 1005.9
20260505032619 21 218 6.4 6.4 0.00 0.00 0.00 63 1006.0
20260505032115 21 166 8.0 11.3 0.00 0.00 0.00 63 1006.0
20260505031612 21 310 4.8 6.4 0.00 0.00 0.00 63 1006.0
20260505031108 21 191 8.0 12.9 0.00 0.00 0.00 62 1005.9
20260505030605 21 117 3.2 3.2 0.00 0.00 0.00 62 1005.7
20260505025557 21 255 4.8 4.8 0.00 0.00 0.00 61 1005.9
20260505025056 21 90 6.4 9.7 0.00 0.00 0.00 61 1005.9
20260505024553 21 73 3.2 3.2 0.00 0.00 0.00 60 1005.8
20260505024050 21 50 1.6 1.6 0.00 0.00 0.00 60 1005.9
20260505023547 21 132 8.0 11.3 0.00 0.00 0.00 59 1005.9
20260505023045 21 197 8.0 12.9 0.00 0.00 0.00 59 1005.7
20260505022542 22 113 3.2 3.2 0.00 0.00 0.00 59 1005.7
20260505022039 22 108 9.7 12.9 0.00 0.00 0.00 58 1005.9
20260505021536 22 142 6.4 9.7 0.00 0.00 0.00 58 1005.8
20260505021033 22 129 6.4 6.4 0.00 0.00 0.00 58 1005.7
20260505020532 22 118 6.4 9.7 0.00 0.00 0.00 58 1005.9
20260505020030 22 139 4.8 4.8 0.00 0.00 0.00 58 1005.6
20260505015527 22 146 6.4 6.4 0.00 0.00 0.00 57 1005.5
20260505015023 22 200 4.8 6.4 0.00 0.00 0.00 58 1005.5
20260505014520 22 167 6.4 9.7 0.00 0.00 0.00 57 1005.5
20260505014018 22 102 6.4 9.7 0.00 0.00 0.00 57 1005.5
20260505013515 22 172 6.4 6.4 0.00 0.00 0.00 57 1005.6
20260505013012 22 183 4.8 6.4 0.00 0.00 0.00 58 1005.6
20260505012510 22 163 8.0 11.3 0.00 0.00 0.00 57 1005.4
20260505012007 22 179 6.4 6.4 0.00 0.00 0.00 57 1005.2
20260505011502 22 44 1.6 1.6 0.00 0.00 0.00 57 1005.4
20260505011000 22 176 4.8 6.4 0.00 0.00 0.00 56 1005.5
20260505010455 22 146 6.4 9.7 0.00 0.00 0.00 55 1005.6
20260505005951 23 227 9.7 12.9 0.00 0.00 0.00 55 1005.5
20260505005448 23 124 9.7 11.3 0.00 0.00 0.00 54 1005.4
20260505004946 23 225 8.0 11.3 0.00 0.00 0.00 54 1005.4
20260505004442 23 161 6.4 6.4 0.00 0.00 0.00 54 1005.1
20260505003939 23 71 4.8 6.4 0.00 0.00 0.00 54 1005.1
20260505003436 23 204 8.0 11.3 0.00 0.00 0.00 54 1005.1
20260505002932 23 217 11.3 16.1 0.00 0.00 0.00 53 1005.1
20260505002429 23 202 11.3 16.1 0.00 0.00 0.00 53 1005.4
20260505001927 23 202 12.9 16.1 0.00 0.00 0.00 52 1005.2
20260505001425 23 228 14.5 17.7 0.00 0.00 0.00 52 1005.3
20260505000922 24 205 6.4 6.4 0.00 0.00 0.00 52 1005.2
20260505000420 24 182 8.0 9.7 0.00 0.00 0.00 51 1004.8
20260504235916 24 263 9.7 12.9 0.00 0.00 0.00 51 1004.9
20260504235414 24 238 8.0 11.3 0.00 0.00 0.00 50 1005.0
20260504234909 24 170 11.3 16.1 0.00 0.00 0.00 50 1005.0
20260504234407 25 228 17.7 22.5 0.00 0.00 0.00 50 1004.8
20260504233903 25 230 8.0 9.7 0.00 0.00 0.00 50 1004.8
20260504233359 25 155 8.0 11.3 0.00 0.00 0.00 50 1004.9
20260504232856 25 127 6.4 9.7 0.00 0.00 0.00 50 1004.8
20260504232353 25 248 6.4 9.7 0.00 0.00 0.00 49 1004.8
20260504231850 25 38 9.7 12.9 0.00 0.00 0.00 48 1005.0
20260504231346 25 136 11.3 14.5 0.00 0.00 0.00 47 1004.9
20260504230843 25 203 17.7 22.5 0.00 0.00 0.00 47 1005.1
20260504230340 25 258 12.9 16.1 0.00 0.00 0.00 47 1005.1
20260504225839 26 206 12.9 17.7 0.00 0.00 0.00 47 1004.9
20260504225335 26 73 8.0 11.3 0.00 0.00 0.00 47 1005.0
20260504224833 26 166 9.7 12.9 0.00 0.00 0.00 47 1004.9
20260504224329 26 132 6.4 9.7 0.00 0.00 0.00 47 1004.7
20260504223826 26 242 9.7 14.5 0.00 0.00 0.00 47 1004.7
20260504223321 26 131 12.9 20.9 0.00 0.00 0.00 47 1004.6
20260504222818 26 130 8.0 11.3 0.00 0.00 0.00 47 1004.6
20260504222315 26 235 3.2 4.8 0.00 0.00 0.00 48 1004.5
20260504221814 26 231 8.0 11.3 0.00 0.00 0.00 46 1004.8
20260504221310 26 192 14.5 20.9 0.00 0.00 0.00 46 1004.7
20260504220807 26 284 14.5 22.5 0.00 0.00 0.00 47 1004.6
20260504220304 27 212 16.1 24.1 0.00 0.00 0.00 46 1004.7
20260504215801 27 213 8.0 14.5 0.00 0.00 0.00 45 1004.5
20260504215257 27 197 9.7 12.9 0.00 0.00 0.00 45 1004.9
20260504214753 27 229 6.4 9.7 0.00 0.00 0.00 44 1004.9
20260504214250 27 208 3.2 6.4 0.00 0.00 0.00 44 1004.9